TimeCST,TemperatureF,Dew PointF,Humidity,Sea Level PressureIn,VisibilityMPH,Wind Direction,Wind SpeedMPH,Gust SpeedMPH,PrecipitationIn,Events,Conditions,WindDirDegrees,DateUTC
12:15 AM,61.7,55.9,81,29.91,10.0,SW,15.0,23.0,N/A,,Mostly Cloudy,220,2012-12-04 06:15:00
12:35 AM,61.7,56.3,82,29.92,10.0,SW,16.1,21.9,N/A,,Overcast,230,2012-12-04 06:35:00
12:55 AM,60.1,56.8,89,29.91,7.0,WSW,10.4,19.6,0.05,Rain,Light Rain,240,2012-12-04 06:55:00
1:15 AM,59.2,57.6,94,29.92,5.0,SW,10.4,19.6,0.05,Rain,Light Rain,230,2012-12-04 07:15:00
1:35 AM,58.8,57.6,96,29.92,7.0,WSW,8.1,-,0.05,Rain,Light Rain,240,2012-12-04 07:35:00
1:55 AM,58.6,57.7,97,29.93,7.0,WSW,6.9,-,0.05,,Light Drizzle,240,2012-12-04 07:55:00
2:15 AM,58.3,57.6,97,29.93,3.0,WSW,5.8,-,0.01,Rain,Heavy Rain,240,2012-12-04 08:15:00
2:55 AM,57.4,57.0,99,29.94,4.0,NW,16.1,19.6,0.06,Rain,Heavy Rain,320,2012-12-04 08:55:00
3:15 AM,51.6,49.8,94,29.95,5.0,NNW,13.8,23.0,0.03,Rain,Rain,340,2012-12-04 09:15:00
3:35 AM,50.0,48.0,93,29.95,5.0,North,13.8,-,0.04,Rain,Rain,350,2012-12-04 09:35:00
3:55 AM,49.5,47.3,92,29.97,7.0,NNW,13.8,19.6,0.06,Rain,Rain,340,2012-12-04 09:55:00
4:15 AM,48.6,46.0,91,29.98,4.0,NNW,9.2,-,0.07,Rain,Rain,340,2012-12-04 10:15:00
4:35 AM,48.6,46.6,93,29.99,5.0,NNW,12.7,-,0.11,Rain,Rain,330,2012-12-04 10:35:00
4:55 AM,48.0,45.9,92,30.01,5.0,NNW,9.2,19.6,0.16,Rain,Rain,330,2012-12-04 10:55:00
5:15 AM,47.5,45.3,92,30.02,7.0,NNW,10.4,-,0.02,Rain,Rain,330,2012-12-04 11:15:00
5:35 AM,46.6,44.2,92,30.03,7.0,North,10.4,16.1,0.07,Rain,Rain,350,2012-12-04 11:35:00
6:15 AM,46.0,43.3,90,30.04,10.0,North,5.8,-,0.02,Rain,Light Rain,350,2012-12-04 12:15:00
6:35 AM,45.9,43.9,93,30.04,10.0,North,4.6,-,0.02,Rain,Light Rain,350,2012-12-04 12:35:00
6:55 AM,45.9,44.4,95,30.04,7.0,Calm,Calm,-,0.03,Rain,Light Rain,0,2012-12-04 12:55:00
7:15 AM,46.0,44.2,93,30.04,10.0,Calm,Calm,-,0.01,Rain,Light Rain,0,2012-12-04 13:15:00
7:35 AM,46.0,44.6,95,30.05,10.0,Calm,Calm,-,0.01,,Overcast,0,2012-12-04 13:35:00
7:55 AM,45.9,44.8,96,30.05,7.0,Calm,Calm,-,0.01,,Overcast,0,2012-12-04 13:55:00
8:15 AM,46.2,45.5,97,30.07,10.0,Calm,Calm,-,N/A,,Mostly Cloudy,0,2012-12-04 14:15:00
8:35 AM,46.4,45.5,97,30.07,10.0,Calm,Calm,-,N/A,,Mostly Cloudy,0,2012-12-04 14:35:00
8:55 AM,46.9,44.6,92,30.09,10.0,Calm,Calm,-,N/A,,Overcast,0,2012-12-04 14:55:00
9:15 AM,47.3,43.7,87,30.09,10.0,Calm,Calm,-,N/A,,Mostly Cloudy,0,2012-12-04 15:15:00
9:35 AM,47.5,43.2,85,30.09,10.0,Calm,Calm,-,N/A,,Mostly Cloudy,0,2012-12-04 15:35:00
9:55 AM,48.0,43.5,84,30.09,10.0,West,4.6,-,N/A,,Scattered Clouds,270,2012-12-04 15:55:00
10:15 AM,48.6,39.9,72,30.09,10.0,WNW,4.6,-,N/A,,Scattered Clouds,290,2012-12-04 16:15:00
10:35 AM,49.1,38.7,67,30.09,10.0,WNW,5.8,-,N/A,,Overcast,300,2012-12-04 16:35:00
10:55 AM,49.5,38.3,65,30.08,10.0,WNW,4.6,-,N/A,,Overcast,300,2012-12-04 16:55:00
11:15 AM,50.2,37.8,62,30.08,10.0,NW,5.8,-,N/A,,Overcast,310,2012-12-04 17:15:00
11:35 AM,50.7,34.9,55,30.08,10.0,NW,8.1,-,N/A,,Overcast,310,2012-12-04 17:35:00
11:55 AM,51.8,34.2,51,30.08,10.0,West,6.9,-,N/A,,Scattered Clouds,280,2012-12-04 17:55:00
12:15 PM,53.6,32.7,45,30.09,10.0,NW,8.1,17.3,N/A,,Clear,310,2012-12-04 18:15:00
12:35 PM,54.5,31.3,41,30.08,10.0,NW,10.4,16.1,N/A,,Clear,310,2012-12-04 18:35:00
12:55 PM,53.4,30.4,41,30.08,10.0,NW,9.2,-,N/A,,Clear,310,2012-12-04 18:55:00
1:15 PM,52.9,30.2,42,30.08,10.0,NW,13.8,19.6,N/A,,Clear,320,2012-12-04 19:15:00
1:35 PM,52.0,30.4,44,30.08,10.0,NW,11.5,19.6,N/A,,Clear,310,2012-12-04 19:35:00
1:55 PM,52.2,31.6,46,30.08,10.0,WNW,8.1,-,N/A,,Clear,300,2012-12-04 19:55:00
2:15 PM,51.8,31.3,46,30.08,10.0,WNW,6.9,-,N/A,,Clear,300,2012-12-04 20:15:00
2:35 PM,52.3,32.2,46,30.08,10.0,WNW,5.8,-,N/A,,Clear,290,2012-12-04 20:35:00
2:55 PM,52.0,31.8,46,30.09,10.0,WNW,8.1,-,N/A,,Clear,290,2012-12-04 20:55:00
3:15 PM,52.0,31.5,46,30.09,10.0,WNW,6.9,-,N/A,,Clear,290,2012-12-04 21:15:00
3:35 PM,51.4,31.8,47,30.11,10.0,WNW,3.5,-,N/A,,Clear,290,2012-12-04 21:35:00
3:55 PM,49.5,32.7,53,30.11,10.0,West,4.6,-,N/A,,Clear,270,2012-12-04 21:55:00
4:15 PM,48.4,32.0,53,30.12,10.0,West,5.8,-,N/A,,Clear,270,2012-12-04 22:15:00
4:35 PM,47.7,31.8,54,30.13,10.0,West,4.6,-,N/A,,Clear,260,2012-12-04 22:35:00
4:55 PM,42.4,32.0,67,30.12,10.0,WSW,3.5,-,N/A,,Clear,250,2012-12-04 22:55:00
5:15 PM,43.2,31.8,64,30.13,10.0,West,4.6,-,N/A,,Clear,270,2012-12-04 23:15:00
5:35 PM,41.5,31.1,66,30.13,10.0,West,3.5,-,N/A,,Clear,260,2012-12-04 23:35:00
5:55 PM,43.3,31.8,64,30.14,10.0,West,4.6,-,N/A,,Clear,260,2012-12-04 23:55:00
6:15 PM,41.0,31.1,68,30.15,10.0,WSW,5.8,-,N/A,,Clear,240,2012-12-05 00:15:00
6:35 PM,40.6,30.4,67,30.15,10.0,West,3.5,-,N/A,,Scattered Clouds,260,2012-12-05 00:35:00
6:55 PM,42.3,30.7,64,30.15,10.0,West,5.8,-,N/A,,Scattered Clouds,270,2012-12-05 00:55:00
7:15 PM,43.3,30.6,61,30.15,10.0,West,4.6,-,N/A,,Clear,260,2012-12-05 01:15:00
7:35 PM,43.5,31.5,63,30.15,10.0,West,8.1,-,N/A,,Clear,280,2012-12-05 01:35:00
7:55 PM,46.0,30.9,56,30.16,10.0,WNW,4.6,-,N/A,,Clear,290,2012-12-05 01:55:00
8:15 PM,46.0,30.9,56,30.16,10.0,WNW,4.6,-,N/A,,Clear,290,2012-12-05 02:15:00
8:35 PM,44.8,31.1,59,30.17,10.0,West,4.6,-,N/A,,Clear,280,2012-12-05 02:35:00
8:55 PM,43.7,30.7,60,30.18,10.0,WSW,5.8,-,N/A,,Clear,250,2012-12-05 02:55:00
9:15 PM,44.2,30.9,60,30.19,10.0,West,6.9,-,N/A,,Clear,260,2012-12-05 03:15:00
9:35 PM,44.8,31.3,59,30.19,10.0,NW,9.2,-,N/A,,Clear,310,2012-12-05 03:35:00
9:55 PM,44.1,32.0,63,30.19,10.0,NW,10.4,-,N/A,,Clear,320,2012-12-05 03:55:00
10:15 PM,44.1,32.0,63,30.20,10.0,NW,9.2,-,N/A,,Scattered Clouds,310,2012-12-05 04:15:00
10:35 PM,42.3,32.0,67,30.21,10.0,NNW,10.4,-,N/A,,Clear,330,2012-12-05 04:35:00
10:55 PM,42.3,32.5,68,30.22,10.0,NNW,13.8,-,N/A,,Clear,340,2012-12-05 04:55:00
11:15 PM,41.5,32.4,70,30.23,10.0,NNW,12.7,-,N/A,,Clear,340,2012-12-05 05:15:00
11:35 PM,41.0,32.0,70,30.24,10.0,North,16.1,24.2,N/A,,Clear,350,2012-12-05 05:35:00
11:55 PM,39.6,31.3,72,30.25,10.0,North,16.1,-,N/A,,Clear,350,2012-12-05 05:55:00